Location: Aucun
(42.9667°N, 0.1667°W)
Time: 06:10:39
(UTC+00:00)

Cosmos 1400 Rocket - Pass Details

Date: 17 February 2020
Orbit: 522 x 568 km, 81.2° (Epoch: 28 March)

Event Time Altitude Azimuth Distance (km) Brightness Sun altitude
Rises 05:51:00 0° 178° (S) 2,684 6.4 -12.6°
Reaches altitude 10° 05:53:09 10° 173° (S) 1,805 5.6 -12.2°
Maximum altitude 05:57:02 54° 96° (E) 670 3.7 -11.5°
Drops below altitude 10° 06:01:01 10° 19° (NNE) 1,848 5.7 -10.7°
Sets 06:03:15 0° 15° (NNE) 2,755 6.5 -10.3°
